Weather observations for the past three days for
Barnwell Regional Airport
Imperial (Metric)
Date Time (edt) Wind (mph) Vis. (mi.) Weather Sky Cond. Temperature (ºF) Relative Humidity Wind Chill (°F) Heat Index (°F) Pressure Precipitation (in)
Air Dwpt 6 hour altimeter (in) sea level (mb) 1 hr 3 hr 6 hr
Max. Min.
17 13:15 SW 9 G 16 10.00 Partly Cloudy SCT042 93.2 71.6 50% 101 30.02 0.0
17 12:55 Vrbl 7 G 15 10.00 A Few Clouds FEW040 93.2 71.6 50% 101 30.02 0.0
17 12:35 W 9 G 15 10.00 Fair CLR 91.4 71.6 52% 99 30.02 0.0
17 12:15 Vrbl 5 G 13 10.00 Fair CLR 91.4 71.6 52% 99 30.03 0.0
17 11:55 SW 12 10.00 A Few Clouds FEW036 89.6 71.6 55% 96 30.03 0.0
17 11:35 W 8 10.00 Fair CLR 89.6 71.6 55% 96 30.04 0.0
17 11:15 SW 9 10.00 Fair CLR 89.6 71.6 55% 96 30.04 0.0
17 10:55 W 9 10.00 Fair CLR 87.8 71.6 59% 94 30.04 0.0
17 10:35 W 8 10.00 Fair CLR 87.8 73.4 62% 96 30.05 0.0
17 10:15 W 6 G 12 10.00 Fair CLR 86 71.6 62% 92 30.05 0.0
17 09:55 SW 8 10.00 Fair CLR 84.2 73.4 70% 91 30.05 0.0
17 09:35 SW 7 10.00 Fair CLR 82.4 73.4 74% 88 30.05 0.0
17 09:15 SW 9 10.00 Fair CLR 82.4 73.4 74% 88 30.06 0.0
17 08:55 W 7 10.00 Fair CLR 80.6 73.4 79% 85 30.06 0.0
17 08:35 SW 8 10.00 Fair CLR 78.8 73.4 84% 82 30.05 0.0
17 08:15 SW 8 10.00 Fair CLR 77 73.4 89% 78 30.05 0.0
17 07:55 SW 6 10.00 Fair CLR 75.2 73.4 94% 74 30.05 0.0
17 07:35 SW 5 10.00 Fair CLR 75.2 71.6 89% 75 30.04 0.0
17 07:15 Calm 10.00 Fair CLR 75.2 71.6 89% 75 30.04 0.0
17 06:55 Calm 10.00 Fair CLR 73.4 71.6 94% 30.03 0.0
17 06:35 Calm 10.00 Partly Cloudy SCT055 73.4 71.6 94% 30.02 0.0
17 06:15 Calm 10.00 Mostly Cloudy BKN055 BKN060 73.4 71.6 94% 30.01 0.0
17 05:55 Calm 10.00 A Few Clouds FEW060 73.4 71.6 94% 30 0.0
17 05:35 Calm 10.00 Fair CLR 75.2 71.6 89% 75 29.99 0.0
17 05:15 Calm 10.00 Fair CLR 75.2 71.6 89% 75 29.99 0.0
17 04:55 Calm 10.00 Fair CLR 75.2 71.6 89% 75 29.98 0.0
17 04:35 Calm 10.00 Fair CLR 75.2 71.6 89% 75 29.98 0.0
17 04:15 Calm 10.00 Fair CLR 75.2 71.6 89% 75 29.96 0.0
17 03:55 Calm 10.00 Fair CLR 77 71.6 83% 78 29.96 0.0
17 03:35 S 7 10.00 Fair CLR 75.2 71.6 89% 75 29.97 0.0
17 03:15 Calm 10.00 Fair CLR 75.2 71.6 89% 75 29.97 0.0
17 02:55 S 3 10.00 Fair CLR 77 71.6 83% 78 29.97 0.0
17 02:35 S 5 10.00 A Few Clouds FEW048 77 73.4 89% 78 29.97 0.0
17 02:15 Calm 10.00 Fair CLR 77 75.2 94% 78 29.97 0.0
17 01:55 Calm 10.00 Fair CLR 77 75.2 94% 78 29.98 0.0
17 01:35 Calm 10.00 Fair CLR 77 75.2 94% 78 29.98 0.0
17 01:15 Calm 10.00 Fair CLR 77 75.2 94% 78 30 0.0
17 00:55 Calm 10.00 Mostly Cloudy FEW019 FEW049 BKN060 78.8 75.2 89% 82 30.01 0.0
17 00:35 Calm 10.00 Thunderstorm in Vicinity FEW050 BKN060 OVC075 78.8 73.4 84% 82 30.01 0.0
17 00:15 Calm 10.00 Thunderstorm in Vicinity SCT065 78.8 73.4 84% 82 30.01 0.0
16 23:55 S 5 10.00 Fair CLR 78.8 73.4 84% 82 30.01 0.0
16 23:35 Calm 10.00 Fair CLR 78.8 73.4 84% 82 30.02 0.0
16 23:15 SE 5 10.00 Fair CLR 78.8 73.4 84% 82 30.01 0.0
16 22:55 S 5 10.00 Fair CLR 78.8 73.4 84% 82 30.01 0.0
16 22:35 Calm 10.00 Fair CLR 78.8 71.6 79% 82 30.01 0.0
16 22:15 Calm 10.00 Fair CLR 77 71.6 83% 78 30.01 0.0
16 21:55 Calm 10.00 Fair CLR 77 71.6 83% 78 30.02 0.0
16 21:35 Calm 10.00 Thunderstorm in Vicinity CLR 77 71.6 83% 78 30.01 0.0
16 21:15 Calm 10.00 Fair CLR 77 71.6 83% 78 30.01 0.0
16 20:55 Calm 10.00 Thunderstorm in Vicinity CLR 77 71.6 83% 78 30.02 0.0
16 20:35 SE 5 10.00 Thunderstorm in Vicinity FEW055 FEW070 77 71.6 83% 78 30.02 0.0
16 20:15 SE 7 10.00 Thunderstorm FEW050 SCT055 BKN075 78.8 71.6 79% 82 30.02 0.0
16 19:55 SE 12 9.00 Thunderstorm FEW047 BKN055 BKN075 78.8 71.6 79% 82 30.02 0.0
16 19:35 SE 7 9.00 Thunderstorm BKN049 BKN055 BKN075 86 73.4 66% 93 30.01 0.0
16 19:15 Calm 10.00 Thunderstorm FEW050 FEW060 86 73.4 66% 93 29.99 0.0
16 18:55 Vrbl 5 G 12 10.00 Thunderstorm in Vicinity FEW055 SCT065 87.8 73.4 62% 96 29.99 0.0
16 18:35 Calm 10.00 Thunderstorm in Vicinity CLR 87.8 73.4 62% 96 29.97 0.0
16 18:15 Calm 10.00 Thunderstorm in Vicinity CLR 87.8 73.4 62% 96 29.96 0.0
16 17:55 Calm 10.00 Thunderstorm in Vicinity CLR 87.8 73.4 62% 96 29.97 0.0
16 17:35 W 5 10.00 Thunderstorm in Vicinity CLR 87.8 73.4 62% 96 29.95 0.0
16 17:15 NW 7 10.00 A Few Clouds FEW050 FEW055 87.8 71.6 59% 94 29.96 0.0
16 16:55 Vrbl 7 10.00 Thunderstorm in Vicinity FEW049 SCT055 SCT080 93.2 73.4 53% 103 29.96 0.0
16 16:35 SW 8 G 17 10.00 Thunderstorm in Vicinity CLR 95 73.4 50% 105 29.95 0.0
16 16:15 SW 9 10.00 A Few Clouds FEW049 FEW060 FEW075 95 71.6 47% 103 29.95 0.0
16 15:55 SW 8 10.00 Partly Cloudy SCT047 SCT055 SCT075 95 73.4 50% 105 29.96 0.0
16 15:35 S 12 10.00 Thunderstorm in Vicinity SCT047 BKN055 95 73.4 50% 105 29.97 0.0
16 15:15 SW 7 G 13 10.00 Thunderstorm in Vicinity FEW045 SCT055 95 73.4 50% 105 29.97 0.0
16 14:55 SW 8 10.00 A Few Clouds FEW045 FEW060 FEW070 95 73.4 50% 105 29.98 0.0
16 14:35 SW 10 10.00 Partly Cloudy SCT044 SCT070 95 73.4 50% 105 29.99 0.0
16 14:15 W 8 10.00 Partly Cloudy FEW041 FEW048 SCT070 95 73.4 50% 105 30 0.0
16 13:55 SW 8 10.00 A Few Clouds FEW040 93.2 73.4 53% 103 30 0.0
16 13:35 SW 8 10.00 Partly Cloudy FEW037 SCT047 93.2 75.2 56% 105 30.01 0.0
16 13:15 S 7 10.00 Partly Cloudy FEW037 SCT044 SCT050 93.2 75.2 56% 105 30.02 0.0
16 12:55 SW 8 G 14 10.00 Fair CLR 91.4 73.4 56% 100 30.02 0.0
16 12:35 SW 7 10.00 Fair CLR 91.4 73.4 56% 100 30.02 0.0
16 12:15 S 7 10.00 Fair CLR 91.4 73.4 56% 100 30.03 0.0
16 11:55 Vrbl 5 G 13 10.00 Fair CLR 89.6 73.4 59% 98 30.03 0.0
16 11:35 S 8 10.00 Fair CLR 89.6 73.4 59% 98 30.04 0.0
16 11:15 SW 5 9.00 Fair CLR 87.8 73.4 62% 96 30.03 0.0
16 10:55 S 6 G 12 10.00 Fair CLR 87.8 73.4 62% 96 30.04 0.0
16 10:35 Vrbl 5 10.00 Fair CLR 86 73.4 66% 93 30.04 0.0
16 10:15 S 5 10.00 Fair CLR 86 73.4 66% 93 30.04 0.0
16 09:55 S 5 10.00 Fair CLR 84.2 73.4 70% 91 30.04 0.0
16 09:35 Calm 10.00 Fair CLR 82.4 73.4 74% 88 30.04 0.0
16 09:15 Calm 10.00 A Few Clouds FEW065 82.4 73.4 74% 88 30.04 0.0
16 08:55 Calm 10.00 A Few Clouds FEW065 80.6 73.4 79% 85 30.05 0.0
16 08:35 Calm 10.00 Fair CLR 80.6 73.4 79% 85 30.04 0.0
16 08:15 Calm 10.00 Fair CLR 78.8 73.4 84% 82 30.04 0.0
16 07:55 Calm 10.00 Fair CLR 77 73.4 89% 78 30.03 0.0
16 07:35 Calm 10.00 Fair CLR 77 73.4 89% 78 30.03 0.0
16 07:15 Calm 10.00 Fair CLR 75.2 73.4 94% 74 30.03 0.0
16 06:55 Calm 10.00 Fair CLR 75.2 73.4 94% 74 30.02 0.0
16 06:35 Calm 10.00 Fair CLR 75.2 73.4 94% 74 30.02 0.0
16 06:15 Calm 10.00 Fair CLR 75.2 73.4 94% 74 30.01 0.0
16 05:55 Calm 10.00 Fair CLR 75.2 73.4 94% 74 30.01 0.0
16 05:35 Calm 10.00 Fair CLR 75.2 73.4 94% 74 30 0.0
16 05:15 Calm 10.00 Fair CLR 75.2 73.4 94% 74 30 0.0
16 04:55 S 5 10.00 Fair CLR 75.2 73.4 94% 74 29.99 0.0
16 04:35 Calm 10.00 Fair CLR 75.2 73.4 94% 74 29.98 0.0
16 04:15 Calm 10.00 Fair CLR 77 73.4 89% 78 29.97 0.0
16 03:55 Calm 10.00 Fair CLR 77 73.4 89% 78 29.98 0.0
16 03:35 Calm 10.00 Fair CLR 77 73.4 89% 78 29.98 0.0
16 03:15 Calm 10.00 Fair CLR 77 73.4 89% 78 29.98 0.0
16 02:55 Calm 10.00 Fair CLR 77 73.4 89% 78 29.97 0.0
16 02:35 Calm 10.00 Fair CLR 77 73.4 89% 78 29.98 0.0
16 02:15 Calm 10.00 Fair CLR 78.8 71.6 79% 82 29.99 0.0
16 01:55 Calm 10.00 Fair CLR 78.8 71.6 79% 82 29.99 0.0
16 01:35 Calm 10.00 Fair CLR 78.8 71.6 79% 82 29.99 0.0
16 01:15 Calm 10.00 Fair CLR 78.8 71.6 79% 82 30 0.0
16 00:55 S 5 10.00 Fair CLR 78.8 71.6 79% 82 30.01 0.0
16 00:35 Calm 10.00 Fair CLR 78.8 71.6 79% 82 30.01 0.0
16 00:15 Calm 10.00 Fair CLR 78.8 71.6 79% 82 30.01 0.0
15 23:55 Calm 10.00 Fair CLR 78.8 71.6 79% 82 30.01 0.0
15 23:35 SW 5 10.00 Fair CLR 80.6 71.6 74% 85 30.01 0.0
15 23:15 S 6 10.00 Fair CLR 80.6 71.6 74% 85 30.01 0.0
15 22:55 S 7 10.00 Fair CLR 80.6 71.6 74% 85 30.01 0.0
15 22:35 S 5 10.00 Thunderstorm in Vicinity CLR 80.6 71.6 74% 85 30.03 0.0
15 22:15 S 5 10.00 Fair CLR 80.6 71.6 74% 85 30.02 0.0
15 21:55 W 3 10.00 Thunderstorm in Vicinity CLR 82.4 71.6 70% 87 30.03 0.0
15 21:35 Calm 10.00 Thunderstorm in Vicinity CLR 82.4 71.6 70% 87 30 0.0
15 21:15 Vrbl 5 10.00 Thunderstorm in Vicinity CLR 82.4 71.6 70% 87 29.99 0.0
15 20:55 S 7 10.00 Fair CLR 84.2 71.6 66% 90 29.99 0.0
15 20:35 SW 5 10.00 Fair CLR 84.2 71.6 66% 90 30 0.0
15 20:15 S 7 10.00 Fair CLR 84.2 73.4 70% 91 29.99 0.0
15 19:55 S 7 10.00 Fair CLR 82.4 73.4 74% 88 29.99 0.0
15 19:35 Vrbl 6 10.00 Fair CLR 84.2 73.4 70% 91 29.99 0.0
15 19:15 S 6 10.00 Fair CLR 84.2 71.6 66% 90 29.98 0.0
15 18:55 S 10 10.00 Fair CLR 84.2 71.6 66% 90 29.98 0.0
15 18:35 S 13 G 20 10.00 Fair CLR 86 69.8 59% 91 29.96 0.0
15 18:15 SE 14 10.00 Thunderstorm in Vicinity CLR 87.8 69.8 55% 93 29.97 0.0
15 17:55 SE 17 G 24 10.00 Fair CLR 91.4 69.8 49% 97 29.96 0.0
15 17:35 S 6 10.00 Thunderstorm in Vicinity CLR 98.6 64.4 33% 101 29.94 0.0
15 17:15 W 7 10.00 Fair CLR 98.6 66.2 35% 103 29.94 0.0
15 16:55 Vrbl 5 10.00 Thunderstorm in Vicinity CLR 100.4 68 35% 106 29.94 0.0
15 16:35 SW 8 10.00 A Few Clouds FEW070 98.6 68 37% 104 29.94 0.0
15 16:15 Vrbl 7 10.00 Thunderstorm in Vicinity FEW070 98.6 66.2 35% 103 29.94 0.0
15 15:55 SW 9 10.00 Fair CLR 100.4 68 35% 106 29.95 0.0
15 15:35 S 8 10.00 Fair CLR 100.4 66.2 33% 105 29.96 0.0
15 15:15 W 8 G 14 10.00 Fair CLR 100.4 68 35% 106 29.98 0.0
15 14:55 SW 8 10.00 A Few Clouds FEW070 98.6 66.2 35% 103 29.98 0.0
15 14:15 W 8 10.00 Fair CLR 98.6 69.8 39% 106 30 0.0
15 13:55 Vrbl 6 10.00 Fair CLR 98.6 69.8 39% 106 30.01 0.0
15 13:35 SW 8 10.00 Fair CLR 98.6 69.8 39% 106 30.02 0.0
15 13:15 Vrbl 6 10.00 Fair CLR 96.8 69.8 42% 103 30.03 0.0
15 12:55 SW 8 10.00 Fair CLR 96.8 71.6 44% 105 30.03 0.0
15 12:35 SW 8 10.00 Fair CLR 95 71.6 47% 103 30.04 0.0
15 12:15 Vrbl 6 10.00 Fair CLR 95 73.4 50% 105 30.04 0.0
15 11:55 Vrbl 5 10.00 Fair CLR 93.2 73.4 53% 103 30.05 0.0
15 11:35 SW 6 10.00 Fair CLR 93.2 73.4 53% 103 30.06 0.0
15 11:15 SW 6 10.00 Fair CLR 91.4 73.4 56% 100 30.06 0.0
15 10:55 SW 6 10.00 Fair CLR 91.4 73.4 56% 100 30.07 0.0
15 10:35 Calm 10.00 Fair CLR 89.6 75.2 63% 100 30.07 0.0
15 10:15 Vrbl 3 10.00 Fair CLR 87.8 73.4 62% 96 30.07 0.0
15 09:55 SW 6 10.00 Fair CLR 87.8 75.2 66% 98 30.07 0.0
15 09:35 SW 7 10.00 Fair CLR 86 75.2 70% 95 30.07 0.0
15 09:15 SW 6 10.00 Fair CLR 84.2 75.2 74% 92 30.07 0.0
15 08:55 SW 6 10.00 Fair CLR 82.4 75.2 79% 89 30.07 0.0
15 08:35 Calm 10.00 Fair CLR 80.6 73.4 79% 85 30.07 0.0
15 08:15 SW 5 10.00 Fair CLR 80.6 73.4 79% 85 30.06 0.0
15 07:55 Calm 10.00 Fair CLR 78.8 73.4 84% 82 30.06 0.0
15 07:35 Calm 10.00 Fair CLR 77 73.4 89% 78 30.05 0.0
15 07:15 Calm 10.00 Fair CLR 77 73.4 89% 78 30.05 0.0
15 06:35 SW 3 10.00 Fair CLR 77 73.4 89% 78 30.04 0.0
15 06:15 Calm 10.00 Fair CLR 77 73.4 89% 78 30.03 0.0
15 05:55 Calm 10.00 Fair CLR 77 73.4 89% 78 30.03 0.0
15 05:35 Calm 10.00 Fair CLR 77 73.4 89% 78 30.02 0.0
15 05:15 Calm 10.00 Fair CLR 77 73.4 89% 78 30.02 0.0
15 04:55 Calm 10.00 Fair CLR 77 73.4 89% 78 30.02 0.0
15 04:35 Calm 10.00 Fair CLR 78.8 73.4 84% 82 30.01 0.0
15 03:55 Calm 10.00 Fair CLR 78.8 73.4 84% 82 30.02 0.0
15 03:35 Calm 10.00 Fair CLR 78.8 73.4 84% 82 30.02 0.0
15 03:15 Calm 10.00 Fair CLR 80.6 73.4 79% 85 30.03 0.0
15 02:55 Calm 10.00 Fair CLR 80.6 73.4 79% 85 30.04 0.0
15 02:35 Calm 10.00 Fair CLR 80.6 73.4 79% 85 30.05 0.0
15 02:15 Calm 10.00 Fair CLR 80.6 73.4 79% 85 30.06 0.0
15 01:55 S 3 10.00 Fair CLR 80.6 75.2 84% 86 30.06 0.0
15 01:35 S 6 10.00 Fair CLR 82.4 73.4 74% 88 30.07 0.0
15 01:15 Calm 10.00 Fair CLR 82.4 73.4 74% 88 30.08 0.0
15 00:55 SE 7 10.00 Fair CLR 82.4 73.4 74% 88 30.08 0.0
15 00:35 E 6 10.00 Fair CLR 82.4 73.4 74% 88 30.09 0.0
15 00:15 Calm 10.00 Fair CLR 82.4 73.4 74% 88 30.08 0.0
14 23:35 SE 3 10.00 A Few Clouds FEW120 84.2 73.4 70% 91 30.07 0.0
14 23:15 Calm 10.00 A Few Clouds FEW075 84.2 73.4 70% 91 30.07 0.0
14 22:55 S 3 10.00 Mostly Cloudy BKN075 BKN090 86 73.4 66% 93 30.06 0.0
14 22:35 Calm 10.00 Mostly Cloudy BKN075 BKN090 BKN110 86 73.4 66% 93 30.06 0.0
14 22:15 S 5 10.00 Partly Cloudy FEW075 SCT110 86 71.6 62% 92 30.05 0.0
14 21:55 S 5 10.00 Thunderstorm in Vicinity SCT080 BKN110 87.8 71.6 59% 94 30.04 0.0
14 21:35 S 5 G 12 10.00 Overcast BKN075 OVC095 87.8 71.6 59% 94 30.05 0.0
14 21:15 Calm 10.00 Overcast BKN080 OVC090 87.8 71.6 59% 94 30.04 0.0
14 20:55 Calm 10.00 Partly Cloudy SCT085 89.6 69.8 52% 95 30.04 0.0
14 20:35 Calm 10.00 Fair CLR 89.6 69.8 52% 95 30.04 0.0
14 20:15 Calm 10.00 Fair CLR 91.4 69.8 49% 97 30.03 0.0
14 19:55 SW 5 10.00 A Few Clouds FEW080 93.2 69.8 47% 99 30.03 0.0
14 19:35 SW 6 10.00 A Few Clouds FEW080 93.2 69.8 47% 99 30.02 0.0
14 19:15 Calm 10.00 Fair CLR 95 69.8 44% 101 30.02 0.0
14 18:55 SW 5 10.00 Fair CLR 96.8 68 39% 102 30.02 0.0
14 18:35 SW 6 10.00 Fair CLR 96.8 68 39% 102 30.02 0.0
14 18:15 SW 7 10.00 Fair CLR 96.8 68 39% 102 30.01 0.0
14 17:55 S 7 10.00 Fair CLR 98.6 68 37% 104 30.01 0.0
14 17:35 Vrbl 6 10.00 Fair CLR 98.6 68 37% 104 30.01 0.0
14 17:15 W 5 10.00 Fair CLR 98.6 68 37% 104 30.03 0.0
14 16:55 SW 9 10.00 Fair CLR 98.6 68 37% 104 30.03 0.0
14 16:35 SW 5 G 13 10.00 Fair CLR 96.8 68 39% 102 30.04 0.0
14 16:15 S 5 10.00 A Few Clouds FEW070 FEW080 98.6 68 37% 104 30.04 0.0
14 15:55 S 7 10.00 Fair CLR 96.8 68 39% 102 30.05 0.0
14 15:35 S 6 10.00 Fair CLR 98.6 68 37% 104 30.07 0.0
14 15:15 S 8 10.00 Fair CLR 96.8 68 39% 102 30.07 0.0
14 14:55 W 7 10.00 Fair CLR 96.8 68 39% 102 30.08 0.0
14 14:35 W 7 10.00 Fair CLR 98.6 69.8 39% 106 30.09 0.0
14 14:15 SW 5 10.00 Fair CLR 98.6 68 37% 104 30.09 0.0
14 13:55 W 6 10.00 Partly Cloudy FEW070 SCT085 96.8 66.2 37% 100 30.1 0.0
14 13:35 Calm 10.00 A Few Clouds FEW095 FEW120 98.6 66.2 35% 103 30.1 0.0
Date Time (edt) Wind (mph) Vis. (mi.) Weather Sky Cond. Air Dwpt Max. Min. Relative Humidity Wind Chill (°F) Heat Index (°F) altimeter (in) sea level (mb) 1 hr 3 hr 6 hr
6 hour
Temperature (ºF) Pressure Precipitation (in)